Regional Weather Roundup
Issued by NWS Midland/Odessa, TX

Home | Current Version | Previous Version | Text Only | Print | Product List | Glossary On
Versions: 1 2 3 4 5 6 7 8 9 10 11 12 13 14 15 16 17 18 19 20 21 22 23 24 25 26 27 28 29 30 31 32 33 34 35 36 37 38 39 40 41 42 43 44 45 46 47 48 49 50
000
ASUS44 KMAF 231710
RWRMAF
MIDLAND AREA WEATHER ROUNDUP
NATIONAL WEATHER SERVICE MIDLAND TX
1200 PM CDT THU MAR 23 2017

...IN SOUTHWEST TEXAS AND SOUTHEAST NEW MEXICO...

CITY           SKY/WX    TMP DP  RH WIND       PRES   REMARKS
ALPINE         MOSUNNY   79  40  24 S24G32    30.00F
ANDREWS        FAIR      71  54  54 S24G32    29.90F
ARTESIA        SUNNY     73  54  49 S25       29.79F
BIG SPRING     PTSUNNY   70  58  64 SE33      29.96S
CARLSBAD       SUNNY     74  54  49 S21G29    29.80F
DRYDEN           N/A     74  61  63 SE17G23   29.94F
FORT STOCKTON  SUNNY     80  50  34 S24G30    29.88F
GUAD PASS      SUNNY     75  29  18 SW28G38   29.93F
HOBBS          SUNNY     72  55  56 SE23G30   29.86F
MARFA          SUNNY     76  41  28 S25G31    29.99F
MIDLAND AIRPK  SUNNY     74  56  53 S25G32    29.92F
MIDLAND INTL   SUNNY     73  54  51 S31G39    29.91F
ODESSA           N/A     74  54  49 S25G33    29.91F
PECOS          SUNNY     86  46  24 SE21      29.80F
PRESIDIO       FAIR      85  36  17 S5        29.91F
SEMINOLE       SUNNY     73  54  51 S24G30    29.89F
SNYDER         SUNNY     72  57  60 S24G31    29.94S
WINK             N/A    N/A N/A N/A MISG      29.84F
$$
...OTHER STATIONS IN TEXAS...

CITY           SKY/WX    TMP DP  RH WIND       PRES   REMARKS
ABILENE        SUNNY     73  55  53 S25G37    29.96F
AMARILLO       SUNNY     73  54  51 S28G37    29.85F
AUSTIN         MOSUNNY   79  61  53 S16G29    30.09F
BROWNSVILLE    MOSUNNY   81  65  58 SE24G32   30.11S
CORPUS CHRISTI MOSUNNY   79  65  62 SE26      30.11S
DALLAS FTW     MOSUNNY   78  57  48 S23G32    30.04S
DEL RIO        CLOUDY    71  63  75 SE20G31   29.99F
EL PASO        MOSUNNY   81  10   7 S29G39    29.82F
HOUSTON INT    MOSUNNY   80  61  52 S13       30.16F
LUBBOCK        MOSUNNY   75  54  47 S31G39    29.88F
SAN ANGELO     CLOUDY    70  57  63 S18G26    29.99S
SAN ANTONIO    PTSUNNY   72  61  68 S20G25    30.10F
WACO           SUNNY     76  59  55 S23G35    30.07F
WICHITA FALLS  NOT AVBL
$$
...OTHER LOCATIONS IN NEW MEXICO...

CITY           SKY/WX    TMP DP  RH WIND       PRES   REMARKS
ALAMAGORDO     SUNNY     77  16  10 SW32G40   29.80F
ALBUQUERQUE    MOSUNNY   65  22  19 SW20G31   29.82F
CANNON AFB     SUNNY     76  39  25 S16G23    29.82F
CLOVIS         SUNNY     75  48  38 S20       29.84F
HOLLOMAN AFB   SUNNY     78   9   7 SW28      29.82F
ROSWELL        SUNNY     78  45  30 S25G31    29.78F
RUIDOSO        SUNNY     66  10  11 SW29G39   29.91F
SANTA FE       SUNNY     63  22  20 SW26G36   29.84F
TRUTH OR CONSE SUNNY     68  25  19 SW22G32   29.83F
TUCUMCARI      SUNNY     76  46  34 S21G26    29.78F
$$



USA.gov is the U.S. government's official web portal to all federal, state and local government web resources and services.